Location: Rehoboth Beach
(38.7438°N, 75.1341°W)
Time: 03:16:02
(UTC-04:00)

Hubble Space Telescope - Visible Passes

Search period start: 22 August 2017 00:00
Search period end: 01 September 2017 00:00
Orbit: 538 x 542 km, 28.5° (Epoch: 21 August)

Date Brightness Start Highest point End Pass type
(mag) Time Alt. Az. Time Alt. Az. Time Alt. Az.
22 Aug 2.5 04:44:31 19° S 04:44:31 19° S 04:47:06 10° SE visible
23 Aug 2.8 04:35:10 16° SSE 04:35:10 16° SSE 04:36:49 10° SE visible
24 Aug 3.2 04:25:56 12° SSE 04:25:56 12° SSE 04:26:28 10° SSE visible
